When you browse on this site, cookies collect data to enhance your experience and personalize the content and advertising you see.
Visit our Privacy Policy to learn more. By continuing to use the site, you agree to this use of cookies and data.
  • In Romania
  • List of Countries
  • For 7 days
  • Water Temperature
  • Satellite Maps
  • Weather Map
  • Weather Widgets
  • user-avatar
    Login

    Hourly Weather Nizhnebalkovskiy

    Today, 21 January, Monday

    Time Temperature Precipitation Wind Pressure Humidity
    00:00 +1°C° 0 mm 2 mps 732 mmHg 89%
    01:00 +1°C° 0 mm 2 mps 732 mmHg 88%
    02:00 +1°C° 0 mm 2 mps 732 mmHg 88%
    03:00 +1°C° 0 mm 2 mps 732 mmHg 87%
    04:00 +1°C° 0 mm 2 mps 732 mmHg 86%
    05:00 +1°C° 0 mm 2 mps 732 mmHg 85%
    06:00 +1°C° 0 mm 2 mps 731 mmHg 84%
    07:00 0°C° 0 mm 3 mps 731 mmHg 81%
    08:00 0°C° 0 mm 3 mps 731 mmHg 78%
    09:00 +1°C° 0 mm 3 mps 730 mmHg 75%
    10:00 +2°C° 0 mm 3 mps 730 mmHg 69%
    11:00 +3°C° 0 mm 3 mps 729 mmHg 63%
    12:00 +4°C° 0 mm 3 mps 729 mmHg 58%
    13:00 +5°C° 0 mm 3 mps 728 mmHg 58%
    14:00 +5°C° 0 mm 3 mps 728 mmHg 58%
    15:00 +5°C° 0 mm 3 mps 727 mmHg 58%
    16:00 +5°C° 0 mm 2 mps 727 mmHg 62%
    17:00 +4°C° 0 mm 2 mps 727 mmHg 66%
    18:00 +4°C° 0 mm 1 mps 727 mmHg 70%
    19:00 +4°C° 0 mm 1 mps 727 mmHg 68%
    20:00 +5°C° 0 mm 1 mps 727 mmHg 66%
    21:00 +5°C° 0 mm 1 mps 727 mmHg 63%
    22:00 +5°C° 0 mm 1 mps 727 mmHg 61%
    23:00 +5°C° 0 mm 1 mps 727 mmHg 59%

    Tomorrow, 22 January, Tuesday

    Time Temperature Precipitation Wind Pressure Humidity
    00:00 +5°C° 0 mm 1 mps 727 mmHg 56%
    01:00 +4°C° 0 mm 1 mps 727 mmHg 58%
    02:00 +3°C° 0 mm 2 mps 727 mmHg 60%
    03:00 +3°C° 0 mm 2 mps 727 mmHg 62%
    04:00 +4°C° 0.2 mm 1 mps 727 mmHg 67%
    05:00 +4°C° 0.2 mm 1 mps 727 mmHg 72%
    06:00 +3°C° 0.2 mm 1 mps 727 mmHg 76%
    07:00 +3°C° 0.6 mm 1 mps 728 mmHg 78%
    08:00 +3°C° 0.6 mm 1 mps 728 mmHg 80%
    09:00 +4°C° 0.6 mm 1 mps 729 mmHg 82%
    10:00 +4°C° 1.1 mm 1 mps 729 mmHg 85%
    11:00 +4°C° 1.1 mm 1 mps 729 mmHg 88%
    12:00 +4°C° 1.1 mm 1 mps 729 mmHg 91%
    13:00 +4°C° 0.5 mm 1 mps 730 mmHg 93%
    14:00 +4°C° 0.5 mm 1 mps 730 mmHg 95%
    15:00 +3°C° 0.5 mm 1 mps 730 mmHg 98%
    16:00 +3°C° 0.2 mm 1 mps 730 mmHg 98%
    17:00 +3°C° 0.2 mm 1 mps 731 mmHg 97%
    18:00 +2°C° 0.2 mm 1 mps 731 mmHg 97%
    19:00 +2°C° 0.1 mm 1 mps 731 mmHg 97%
    20:00 +1°C° 0.1 mm 2 mps 731 mmHg 97%
    21:00 -1°C° 0.1 mm 2 mps 731 mmHg 97%
    22:00 -1°C° 0 mm 2 mps 731 mmHg 97%
    23:00 -1°C° 0 mm 2 mps 731 mmHg 97%

    Day after tomorrow, 23 January, Wednesday

    Time Temperature Precipitation Wind Pressure Humidity
    00:00 -1°C° 0 mm 2 mps 732 mmHg 97%
    01:00 -1°C° 0 mm 3 mps 731 mmHg 97%
    02:00 -2°C° 0 mm 3 mps 731 mmHg 96%
    03:00 -2°C° 0 mm 3 mps 731 mmHg 96%
    04:00 -2°C° 0 mm 3 mps 731 mmHg 95%
    05:00 -3°C° 0 mm 4 mps 731 mmHg 94%
    06:00 -3°C° 0 mm 4 mps 731 mmHg 93%
    07:00 -3°C° 0 mm 4 mps 731 mmHg 92%
    08:00 -3°C° 0 mm 4 mps 731 mmHg 91%
    09:00 -3°C° 0 mm 4 mps 731 mmHg 89%
    10:00 -2°C° 0 mm 4 mps 731 mmHg 89%
    11:00 -2°C° 0 mm 5 mps 730 mmHg 88%
    12:00 -1°C° 0 mm 5 mps 730 mmHg 87%
    13:00 -1°C° 0 mm 5 mps 730 mmHg 87%
    14:00 -1°C° 0 mm 5 mps 730 mmHg 87%
    15:00 -1°C° 0 mm 5 mps 729 mmHg 87%
    16:00 -2°C° 0 mm 5 mps 730 mmHg 88%
    17:00 -2°C° 0 mm 5 mps 730 mmHg 90%
    18:00 -4°C° 0 mm 5 mps 730 mmHg 91%
    19:00 -4°C° 0 mm 5 mps 730 mmHg 90%
    20:00 -4°C° 0 mm 5 mps 730 mmHg 90%
    21:00 -4°C° 0 mm 5 mps 730 mmHg 89%
    22:00 -4°C° 0 mm 5 mps 730 mmHg 88%
    23:00 -2°C° 0 mm 4 mps 730 mmHg 87%

    24 January, Thursday

    Time Temperature Precipitation Wind Pressure Humidity
    00:00 -2°C° 0 mm 4 mps 730 mmHg 86%
    01:00 -2°C° 0 mm 4 mps 730 mmHg 86%
    02:00 -2°C° 0 mm 4 mps 730 mmHg 85%
    03:00 -2°C° 0 mm 4 mps 729 mmHg 85%
    04:00 -2°C° 0 mm 4 mps 729 mmHg 84%
    05:00 -1°C° 0 mm 3 mps 729 mmHg 84%
    06:00 -1°C° 0 mm 3 mps 728 mmHg 84%
    07:00 -1°C° 0 mm 3 mps 728 mmHg 83%
    08:00 -1°C° 0 mm 3 mps 728 mmHg 81%
    09:00 0°C° 0 mm 3 mps 728 mmHg 80%
    10:00 +1°C° 0 mm 3 mps 728 mmHg 79%
    11:00 +2°C° 0 mm 3 mps 727 mmHg 78%
    12:00 +3°C° 0 mm 3 mps 727 mmHg 77%
    13:00 +3°C° 0 mm 3 mps 726 mmHg 77%
    14:00 +3°C° 0 mm 3 mps 726 mmHg 78%
    15:00 +3°C° 0 mm 3 mps 725 mmHg 79%
    16:00 +3°C° 0 mm 2 mps 726 mmHg 80%
    17:00 +2°C° 0 mm 2 mps 726 mmHg 81%
    18:00 +2°C° 0 mm 2 mps 726 mmHg 82%
    19:00 +2°C° 0 mm 2 mps 726 mmHg 80%
    20:00 +2°C° 0 mm 2 mps 726 mmHg 78%
    21:00 +2°C° 0 mm 2 mps 726 mmHg 76%
    22:00 +3°C° 0 mm 1 mps 725 mmHg 76%
    23:00 +3°C° 0 mm 1 mps 725 mmHg 75%

    25 January, Friday

    Time Temperature Precipitation Wind Pressure Humidity
    00:00 +3°C° 0 mm 1 mps 725 mmHg 75%
    01:00 +3°C° 0 mm 1 mps 725 mmHg 73%
    02:00 +3°C° 0 mm 1 mps 725 mmHg 71%
    03:00 +3°C° 0 mm 1 mps 725 mmHg 68%
    04:00 +3°C° 0 mm 1 mps 725 mmHg 67%
    05:00 +4°C° 0 mm 1 mps 725 mmHg 65%
    06:00 +4°C° 0 mm 1 mps 724 mmHg 64%
    07:00 +4°C° 0 mm 1 mps 725 mmHg 64%
    08:00 +5°C° 0 mm 1 mps 725 mmHg 63%
    09:00 +5°C° 0 mm 1 mps 725 mmHg 63%
    10:00 +6°C° 0 mm 1 mps 725 mmHg 62%
    11:00 +6°C° 0 mm 0 mps 725 mmHg 61%
    12:00 +7°C° 0 mm 0 mps 725 mmHg 60%
    13:00 +7°C° 0 mm 0 mps 725 mmHg 62%
    14:00 +8°C° 0 mm 1 mps 725 mmHg 64%
    15:00 +8°C° 0 mm 1 mps 725 mmHg 66%
    16:00 +7°C° 0 mm 1 mps 725 mmHg 68%
    17:00 +6°C° 0 mm 1 mps 726 mmHg 71%
    18:00 +4°C° 0 mm 0 mps 726 mmHg 73%
    19:00 +5°C° 0 mm 1 mps 726 mmHg 73%
    20:00 +4°C° 0 mm 1 mps 726 mmHg 72%
    21:00 +4°C° 0 mm 1 mps 726 mmHg 72%
    22:00 +4°C° 0 mm 1 mps 726 mmHg 71%
    23:00 +4°C° 0 mm 1 mps 726 mmHg 71%

    26 January, Saturday

    Time Temperature Precipitation Wind Pressure Humidity
    00:00 +4°C° 0 mm 1 mps 726 mmHg 70%
    01:00 +4°C° 0 mm 1 mps 726 mmHg 69%
    02:00 +3°C° 0 mm 0 mps 726 mmHg 68%
    03:00 +3°C° 0 mm 0 mps 726 mmHg 67%
    04:00 +3°C° 0 mm 0 mps 726 mmHg 66%
    05:00 +3°C° 0 mm 0 mps 725 mmHg 65%
    06:00 +3°C° 0 mm 0 mps 725 mmHg 64%
    07:00 +5°C° 0 mm 1 mps 725 mmHg 63%
    08:00 +5°C° 0 mm 1 mps 725 mmHg 62%
    09:00 +6°C° 0 mm 1 mps 725 mmHg 61%
    10:00 +7°C° 0 mm 1 mps 724 mmHg 60%
    11:00 +7°C° 0 mm 1 mps 724 mmHg 59%
    12:00 +8°C° 0 mm 1 mps 724 mmHg 59%
    13:00 +8°C° 0 mm 1 mps 723 mmHg 61%
    14:00 +7°C° 0 mm 2 mps 723 mmHg 64%
    15:00 +6°C° 0 mm 2 mps 723 mmHg 67%
    16:00 +6°C° 0 mm 2 mps 723 mmHg 69%
    17:00 +5°C° 0 mm 2 mps 723 mmHg 71%
    18:00 +4°C° 0 mm 2 mps 723 mmHg 73%
    19:00 +4°C° 0 mm 2 mps 723 mmHg 73%
    20:00 +4°C° 0 mm 2 mps 723 mmHg 73%
    21:00 +5°C° 0 mm 1 mps 723 mmHg 73%
    22:00 +5°C° 0 mm 1 mps 723 mmHg 72%
    23:00 +5°C° 0 mm 1 mps 723 mmHg 71%
    Show more